TimeMST,TemperatureF,Dew PointF,Humidity,Sea Level PressureIn,VisibilityMPH,Wind Direction,Wind SpeedMPH,Gust SpeedMPH,PrecipitationIn,Events,Conditions,WindDirDegrees,DateUTC
12:54 AM,18.0,8.1,65,30.21,10.0,SW,6.9,-,N/A,,Clear,220,2012-11-12 07:54:00
1:54 AM,21.0,9.0,60,30.19,10.0,WSW,15.0,-,N/A,,Clear,240,2012-11-12 08:54:00
2:54 AM,21.0,10.0,63,30.20,10.0,SW,18.4,-,N/A,,Clear,230,2012-11-12 09:54:00
3:54 AM,21.0,10.9,65,30.20,10.0,WSW,19.6,-,N/A,,Clear,240,2012-11-12 10:54:00
4:54 AM,23.0,12.0,63,30.23,10.0,WSW,23.0,-,N/A,,Clear,240,2012-11-12 11:54:00
5:54 AM,21.0,12.9,71,30.24,10.0,SW,17.3,-,N/A,,Clear,230,2012-11-12 12:54:00
6:54 AM,21.0,12.0,68,30.23,10.0,SW,16.1,-,N/A,,Clear,230,2012-11-12 13:54:00
7:54 AM,19.9,12.0,71,30.24,10.0,Calm,Calm,-,N/A,,Clear,0,2012-11-12 14:54:00
8:54 AM,24.1,15.1,69,30.23,10.0,SW,13.8,-,N/A,,Clear,230,2012-11-12 15:54:00
9:54 AM,28.0,17.1,63,30.23,10.0,SW,12.7,-,N/A,,Clear,230,2012-11-12 16:54:00
10:54 AM,30.0,19.9,66,30.20,10.0,SW,11.5,-,N/A,,Clear,230,2012-11-12 17:54:00
11:54 AM,32.0,23.0,69,30.17,10.0,WSW,10.4,-,N/A,,Partly Cloudy,240,2012-11-12 18:54:00
12:54 PM,33.1,25.0,72,30.17,10.0,West,9.2,-,N/A,,Clear,260,2012-11-12 19:54:00
1:54 PM,33.1,26.1,75,30.16,10.0,West,6.9,-,N/A,,Clear,260,2012-11-12 20:54:00
2:54 PM,32.0,25.0,75,30.15,10.0,SW,13.8,-,N/A,,Mostly Cloudy,230,2012-11-12 21:54:00
3:54 PM,34.0,28.0,79,30.14,10.0,SW,8.1,-,N/A,,Overcast,220,2012-11-12 22:54:00
4:54 PM,35.1,27.0,72,30.12,10.0,WSW,9.2,-,N/A,,Overcast,250,2012-11-12 23:54:00
5:54 PM,30.0,21.9,72,30.15,10.0,SW,11.5,-,N/A,,Clear,230,2012-11-13 00:54:00
6:54 PM,30.9,21.9,69,30.16,10.0,Calm,Calm,-,N/A,,Clear,0,2012-11-13 01:54:00
7:54 PM,32.0,23.0,69,30.16,10.0,Calm,Calm,-,N/A,,Mostly Cloudy,0,2012-11-13 02:54:00
8:54 PM,33.1,26.1,75,30.16,10.0,WSW,8.1,-,N/A,,Overcast,240,2012-11-13 03:54:00
9:54 PM,33.1,26.1,75,30.14,10.0,WSW,11.5,-,N/A,,Overcast,240,2012-11-13 04:54:00
10:54 PM,33.1,27.0,78,30.15,10.0,WSW,12.7,-,N/A,,Overcast,240,2012-11-13 05:54:00
11:54 PM,35.1,27.0,72,30.15,10.0,WSW,16.1,-,N/A,,Overcast,240,2012-11-13 06:54:00